SCP
0 0 0 0 0 0 0 0 0 0 -0 -0 -0 0 0 0 0 0 0 0 0 0 0 0 0 0 0 0 0 0 0 0
0 0 0 0 0 0 0 -0 -0 -0 -0 -0 0 0 0 0 0 0 0 0 0 0 0 0 0 0 0 0 0 0 0 0
0 0 0 0 0 0 -0 -0 -0 -0 -0 -0 -0 0 0 0 0 0 0 0 0 0 0 0 0 0 0 0 0 0 0 0
0 0 -0 0 0 0 -0 -0 -0 -0 -0 -0 0 0 0 0 0 0 0 0 0 0 0 0 0 0 0 0 0 0 0 0
0 -0 0 0 0 0 -0 -0 -0 -0 -0 0 0 0 0 0 0 0 0 0 0 0 0 0 0 0 0 0 0 0 0 0
0 0 -0 0 0 0 0 -0 -0 0 0 0 0 0 0 0 0 0 0 0 0 0 0 0 0 0 0 0 0 0 0 0
0 -0 0 0 0 0 0 0 0 0 0 0 0 0 0 0 0 0 0 0 0 0 0 0 0 0 0 0 0 0 0 0
-0 -0 0 0 0 0 0 0 0 0 0 0 0 0 0 0 0 0 0 0 0 0 0 0 0 0 0 0 0 0 0 0
0 0 0 0 0 0 0 0 0 0 0 0 0 0 0 0 0 0 0 0 0 0 0 0 0 0 0 0 0 0 0 0
0 0 0 0 0 0 0 0 0 0 0 0 0 0 0 0 0 0 0 0 0 0 0 0 0 0 0 0 0 0 0 0
0 0 0 0 -0 -0 0 0 0 0 0 0 0 0 0 0 0 0 0 0 0 0 0 0 0 0 0 0 0 0 0 0
0 0 0 0 0 0 0 0 0 0 0 0 0 0 0 0 0 0 0 0 0 0 0 0 0 0 0 0 0 0 0 0
0 0 0 0 0 0 0 0 0 0 0 0 0 0 0 0 0 0 0 0 0 0 0 0 0 0 0 0 0 0 0 0
0 0 0 0 0 0 0 0 0 0 0 0 0 0 0 0 0 0 0 0 0 0 0 0 0 0 0 0 0 0 0 0
0 0 0 0 0 0 0 0 0 0 0 0 0 0 0 0 0 0 0 0 0 0 0 0 0 0 0 0 0 0 0 0
0 0 0 0 0 0 0 0 0 0 0 0 0 0 0 0 0 0 0 0 0 0 0 0 0 0 0 -0 0 0 0 0
0 0 0 0 0 0 0 0 0 0 0 0 0 0 0 0 0 0 -0 0 0 0 0 0 0 0 0 0 0 0 -0 -0
0 0 0 0 0 0 0 0 0 0 0 0 0 0 0 0 0 0 0 0 0 0 0 0 0 0 0 0 0 -0 -0 -0
0 0 0 0 0 0 0 0 0 0 0 0 0 0 0 0 0 0 0 0 0 0 0 0 0 -0 0 0 -0 -0 -0 -0
0 0 0 0 0 0 0 0 0 0 0 0 0 0 0 0 0 0 0 0 0 0 0 0 -0 0 0 -0 -0 -0 0 0
Wind_Speed_500mb
31 28 25 21 23 22 23 27 38 44 46 42 36 28 24 22 20 17 18 21 27 33 36 37 34 32 33 33 37 43 42 34
30 28 24 21 18 20 21 29 37 47 51 43 31 22 19 17 15 17 20 25 31 35 29 27 27 28 26 25 30 39 44 41
28 23 14 13 18 21 20 29 46 54 53 45 31 22 16 15 16 20 26 31 31 26 25 25 25 26 28 26 25 29 36 46
18 20 14 8 13 14 14 33 50 54 53 47 33 25 20 20 22 26 28 29 27 27 29 29 26 28 29 29 29 27 28 35
26 21 20 7 3 11 16 35 46 48 52 49 34 28 26 24 24 25 28 26 25 27 30 29 27 30 31 29 28 30 28 26
20 20 16 12 6 6 18 30 40 42 49 51 35 31 29 29 28 24 25 23 24 27 29 28 31 33 34 34 33 31 28 25
22 13 16 17 13 11 17 24 32 38 44 45 32 29 28 26 24 20 20 21 25 25 27 30 31 34 34 38 39 36 33 29
23 23 18 24 20 17 18 24 28 36 42 46 32 29 29 26 23 22 23 25 24 26 27 29 32 35 34 39 42 33 30 28
27 28 25 31 27 26 23 26 28 31 39 42 31 26 24 23 23 22 24 25 26 27 28 29 33 33 31 39 39 32 20 20
24 34 31 22 16 33 29 27 33 29 35 35 26 24 26 30 28 22 25 26 25 25 28 27 29 26 28 33 31 32 26 18
17 30 31 18 13 24 29 30 29 30 34 34 23 23 26 28 31 28 22 19 19 25 26 24 25 23 28 29 31 30 31 26
17 21 27 32 31 27 30 35 32 32 36 30 22 25 30 32 35 33 24 20 22 25 20 22 21 22 24 30 34 34 32 32
17 23 24 21 24 30 34 33 30 30 31 26 22 27 36 39 38 32 25 22 22 24 25 20 20 22 25 30 33 35 31 28
29 22 21 24 25 28 31 32 24 28 29 28 21 29 35 39 37 30 24 25 23 24 23 17 18 21 25 28 29 28 23 36
22 18 21 23 25 25 30 23 24 26 31 30 20 30 35 39 34 30 28 27 26 27 14 15 16 23 24 26 27 30 32 35
22 22 25 23 22 23 30 26 27 24 32 31 21 30 32 28 25 26 25 26 23 12 14 13 16 21 22 27 23 31 33 36
24 20 25 33 36 27 31 30 31 25 29 33 21 27 27 18 16 18 26 28 25 21 16 12 13 21 21 27 25 25 32 38
35 35 37 33 36 29 37 35 34 28 25 36 24 27 20 13 14 20 18 22 24 26 26 13 12 18 21 26 24 25 22 30
40 40 51 43 40 40 41 38 38 36 29 30 26 30 22 18 17 21 27 20 19 24 27 11 15 16 18 24 28 24 18 16
39 35 41 51 46 40 38 35 41 42 38 34 28 33 30 25 20 21 25 29 23 19 20 19 17 14 14 19 24 21 15 16
Wind_Direction_500mb
153 136 115 87 69 54 30 14 3 0 355 352 348 346 351 352 353 349 346 337 328 324 321 317 312 303 294 282 271 265 267 265
151 139 121 98 76 46 27 13 4 3 5 359 358 1 354 350 346 340 336 337 333 331 335 342 340 337 329 311 278 263 254 257
156 145 138 112 65 32 21 21 13 10 8 1 0 6 1 347 342 338 337 339 343 350 345 348 347 346 337 335 322 284 264 251
161 161 183 134 65 30 20 23 16 13 9 3 6 4 352 342 333 333 338 346 351 354 352 347 346 346 343 334 328 318 291 268
137 170 185 154 109 26 22 21 12 9 6 3 2 10 5 355 343 340 342 345 350 353 352 357 358 355 355 344 329 319 309 289
184 198 209 203 223 345 13 13 3 3 2 359 352 353 353 348 343 336 349 351 348 350 352 348 348 348 345 342 335 322 308 293
204 207 240 242 243 274 347 356 354 355 355 357 348 342 338 339 344 332 337 339 340 341 346 345 341 343 343 337 331 320 311 307
211 233 271 245 246 276 305 331 341 347 349 355 349 340 337 334 332 329 330 331 327 334 337 340 342 344 343 339 335 327 312 308
230 232 259 251 256 263 284 309 329 331 343 349 350 351 354 347 335 327 326 326 328 327 333 336 341 344 346 344 342 337 320 304
251 247 263 284 287 265 270 300 315 324 340 344 349 353 360 3 357 330 321 323 321 325 326 330 336 343 348 351 355 352 340 315
268 256 264 252 256 257 270 290 307 323 334 338 343 347 347 348 351 347 329 331 330 330 323 327 331 336 346 349 347 344 341 330
275 249 264 253 271 266 281 291 303 315 327 331 332 337 335 336 340 344 343 331 327 327 325 322 326 336 345 345 345 345 338 330
288 276 269 268 276 275 280 288 298 311 322 326 326 337 333 335 337 332 334 331 326 322 322 322 331 334 339 340 343 340 332 336
279 294 289 268 283 281 289 288 298 314 328 330 320 332 331 334 335 329 324 329 328 326 322 330 336 335 334 345 351 352 348 354
276 289 287 297 279 295 291 282 297 315 331 331 310 322 331 335 339 338 328 322 322 324 317 343 343 342 345 348 351 352 351 349
298 295 303 297 304 293 301 284 289 315 331 328 308 324 332 340 357 359 358 345 336 344 335 352 349 351 355 353 352 351 360 349
329 330 324 316 315 287 301 287 286 304 329 328 303 315 329 336 356 8 10 10 11 2 342 345 345 351 1 357 352 342 351 350
12 356 344 328 323 304 291 291 280 291 318 326 293 300 312 326 330 333 344 356 354 343 336 304 322 346 349 348 344 343 338 346
21 10 359 352 340 319 302 297 287 288 296 312 292 291 284 292 303 315 322 317 343 346 2 341 310 319 332 342 349 353 346 354
344 334 337 344 335 337 325 311 315 295 287 299 294 277 287 277 286 304 310 314 306 327 333 344 328 318 315 338 5 14 22 22
Wind_Speed_850mb
31 28 25 21 23 22 23 27 38 44 46 42 36 28 24 22 20 17 18 21 27 33 36 37 34 32 33 33 37 43 42 34
30 28 24 21 18 20 21 29 37 47 51 43 31 22 19 17 15 17 20 25 31 35 29 27 27 28 26 25 30 39 44 41
28 23 14 13 18 21 20 29 46 54 53 45 31 22 16 15 16 20 26 31 31 26 25 25 25 26 28 26 25 29 36 46
18 20 14 8 13 14 14 33 50 54 53 47 33 25 20 20 22 26 28 29 27 27 29 29 26 28 29 29 29 27 28 35
26 21 20 7 3 11 16 35 46 48 52 49 34 28 26 24 24 25 28 26 25 27 30 29 27 30 31 29 28 30 28 26
20 20 16 12 6 6 18 30 40 42 49 51 35 31 29 29 28 24 25 23 24 27 29 28 31 33 34 34 33 31 28 25
22 13 16 17 13 11 17 24 32 38 44 45 32 29 28 26 24 20 20 21 25 25 27 30 31 34 34 38 39 36 33 29
23 23 18 24 20 17 18 24 28 36 42 46 32 29 29 26 23 22 23 25 24 26 27 29 32 35 34 39 42 33 30 28
27 28 25 31 27 26 23 26 28 31 39 42 31 26 24 23 23 22 24 25 26 27 28 29 33 33 31 39 39 32 20 20
24 34 31 22 16 33 29 27 33 29 35 35 26 24 26 30 28 22 25 26 25 25 28 27 29 26 28 33 31 32 26 18
17 30 31 18 13 24 29 30 29 30 34 34 23 23 26 28 31 28 22 19 19 25 26 24 25 23 28 29 31 30 31 26
17 21 27 32 31 27 30 35 32 32 36 30 22 25 30 32 35 33 24 20 22 25 20 22 21 22 24 30 34 34 32 32
17 23 24 21 24 30 34 33 30 30 31 26 22 27 36 39 38 32 25 22 22 24 25 20 20 22 25 30 33 35 31 28
29 22 21 24 25 28 31 32 24 28 29 28 21 29 35 39 37 30 24 25 23 24 23 17 18 21 25 28 29 28 23 36
22 18 21 23 25 25 30 23 24 26 31 30 20 30 35 39 34 30 28 27 26 27 14 15 16 23 24 26 27 30 32 35
22 22 25 23 22 23 30 26 27 24 32 31 21 30 32 28 25 26 25 26 23 12 14 13 16 21 22 27 23 31 33 36
24 20 25 33 36 27 31 30 31 25 29 33 21 27 27 18 16 18 26 28 25 21 16 12 13 21 21 27 25 25 32 38
35 35 37 33 36 29 37 35 34 28 25 36 24 27 20 13 14 20 18 22 24 26 26 13 12 18 21 26 24 25 22 30
40 40 51 43 40 40 41 38 38 36 29 30 26 30 22 18 17 21 27 20 19 24 27 11 15 16 18 24 28 24 18 16
39 35 41 51 46 40 38 35 41 42 38 34 28 33 30 25 20 21 25 29 23 19 20 19 17 14 14 19 24 21 15 16
Wind_Direction_850mb
153 136 115 87 69 54 30 14 3 0 355 352 348 346 351 352 353 349 346 337 328 324 321 317 312 303 294 282 271 265 267 265
151 139 121 98 76 46 27 13 4 3 5 359 358 1 354 350 346 340 336 337 333 331 335 342 340 337 329 311 278 263 254 257
156 145 138 112 65 32 21 21 13 10 8 1 0 6 1 347 342 338 337 339 343 350 345 348 347 346 337 335 322 284 264 251
161 161 183 134 65 30 20 23 16 13 9 3 6 4 352 342 333 333 338 346 351 354 352 347 346 346 343 334 328 318 291 268
137 170 185 154 109 26 22 21 12 9 6 3 2 10 5 355 343 340 342 345 350 353 352 357 358 355 355 344 329 319 309 289
184 198 209 203 223 345 13 13 3 3 2 359 352 353 353 348 343 336 349 351 348 350 352 348 348 348 345 342 335 322 308 293
204 207 240 242 243 274 347 356 354 355 355 357 348 342 338 339 344 332 337 339 340 341 346 345 341 343 343 337 331 320 311 307
211 233 271 245 246 276 305 331 341 347 349 355 349 340 337 334 332 329 330 331 327 334 337 340 342 344 343 339 335 327 312 308
230 232 259 251 256 263 284 309 329 331 343 349 350 351 354 347 335 327 326 326 328 327 333 336 341 344 346 344 342 337 320 304
251 247 263 284 287 265 270 300 315 324 340 344 349 353 360 3 357 330 321 323 321 325 326 330 336 343 348 351 355 352 340 315
268 256 264 252 256 257 270 290 307 323 334 338 343 347 347 348 351 347 329 331 330 330 323 327 331 336 346 349 347 344 341 330
275 249 264 253 271 266 281 291 303 315 327 331 332 337 335 336 340 344 343 331 327 327 325 322 326 336 345 345 345 345 338 330
288 276 269 268 276 275 280 288 298 311 322 326 326 337 333 335 337 332 334 331 326 322 322 322 331 334 339 340 343 340 332 336
279 294 289 268 283 281 289 288 298 314 328 330 320 332 331 334 335 329 324 329 328 326 322 330 336 335 334 345 351 352 348 354
276 289 287 297 279 295 291 282 297 315 331 331 310 322 331 335 339 338 328 322 322 324 317 343 343 342 345 348 351 352 351 349
298 295 303 297 304 293 301 284 289 315 331 328 308 324 332 340 357 359 358 345 336 344 335 352 349 351 355 353 352 351 360 349
329 330 324 316 315 287 301 287 286 304 329 328 303 315 329 336 356 8 10 10 11 2 342 345 345 351 1 357 352 342 351 350
12 356 344 328 323 304 291 291 280 291 318 326 293 300 312 326 330 333 344 356 354 343 336 304 322 346 349 348 344 343 338 346
21 10 359 352 340 319 302 297 287 288 296 312 292 291 284 292 303 315 322 317 343 346 2 341 310 319 332 342 349 353 346 354
344 334 337 344 335 337 325 311 315 295 287 299 294 277 287 277 286 304 310 314 306 327 333 344 328 318 315 338 5 14 22 22